When you browse on this site, cookies collect data to enhance your experience and personalize the content and advertising you see.
Visit our Privacy Policy to learn more. By continuing to use the site, you agree to this use of cookies and data.
  • In Hungary
  • List of Countries
  • For 7 days
  • Water Temperature
  • Satellite Maps
  • Weather Map
  • News
  • Weather Widgets
  • user-avatar
    Login

    Hourly Weather La Verne

    Today, 20 February, Wednesday

    Time Temperature Precipitation Wind Pressure Humidity
    00:00 +8°C° 0 mm 1 mps 734 mmHg 63%
    01:00 +8°C° 0 mm 1 mps 734 mmHg 64%
    02:00 +7°C° 0 mm 1 mps 733 mmHg 66%
    03:00 +7°C° 0 mm 1 mps 733 mmHg 67%
    04:00 +7°C° 0 mm 1 mps 733 mmHg 68%
    05:00 +6°C° 0 mm 2 mps 732 mmHg 69%
    06:00 +6°C° 0 mm 2 mps 732 mmHg 70%
    07:00 +6°C° 0 mm 2 mps 732 mmHg 71%
    08:00 +6°C° 0 mm 2 mps 731 mmHg 69%
    09:00 +7°C° 0 mm 3 mps 731 mmHg 67%
    10:00 +8°C° 0 mm 3 mps 730 mmHg 66%
    11:00 +8°C° 0 mm 3 mps 729 mmHg 66%
    12:00 +8°C° 0 mm 3 mps 729 mmHg 66%
    13:00 +8°C° 0 mm 3 mps 728 mmHg 67%
    14:00 +8°C° 0.2 mm 3 mps 727 mmHg 68%
    15:00 +8°C° 0.2 mm 3 mps 727 mmHg 68%
    16:00 +8°C° 0.2 mm 2 mps 726 mmHg 69%
    17:00 +8°C° 0.6 mm 2 mps 725 mmHg 72%
    18:00 +7°C° 0.6 mm 2 mps 725 mmHg 75%
    19:00 +7°C° 0.6 mm 2 mps 725 mmHg 78%
    20:00 +7°C° 1.1 mm 2 mps 725 mmHg 79%
    21:00 +7°C° 1.1 mm 2 mps 724 mmHg 79%
    22:00 +7°C° 1.1 mm 2 mps 724 mmHg 80%
    23:00 +7°C° 0.8 mm 2 mps 724 mmHg 80%

    Tomorrow, 21 February, Thursday

    Time Temperature Precipitation Wind Pressure Humidity
    00:00 +7°C° 0.8 mm 2 mps 724 mmHg 81%
    01:00 +7°C° 0.8 mm 2 mps 723 mmHg 81%
    02:00 +7°C° 0.7 mm 2 mps 723 mmHg 81%
    03:00 +7°C° 0.7 mm 1 mps 723 mmHg 80%
    04:00 +7°C° 0.7 mm 1 mps 722 mmHg 80%
    05:00 +7°C° 0.6 mm 1 mps 722 mmHg 80%
    06:00 +7°C° 0.6 mm 1 mps 722 mmHg 79%
    07:00 +7°C° 0.6 mm 1 mps 722 mmHg 78%
    08:00 +7°C° 0.6 mm 1 mps 722 mmHg 75%
    09:00 +8°C° 0.6 mm 1 mps 722 mmHg 72%
    10:00 +7°C° 0.6 mm 2 mps 723 mmHg 68%
    11:00 +8°C° 0.3 mm 2 mps 723 mmHg 64%
    12:00 +8°C° 0.3 mm 2 mps 723 mmHg 59%
    13:00 +9°C° 0.3 mm 2 mps 723 mmHg 55%
    14:00 +9°C° 0.1 mm 2 mps 723 mmHg 53%
    15:00 +9°C° 0.1 mm 2 mps 723 mmHg 51%
    16:00 +9°C° 0.1 mm 2 mps 723 mmHg 49%
    17:00 +9°C° 0 mm 2 mps 723 mmHg 49%
    18:00 +9°C° 0 mm 1 mps 724 mmHg 48%
    19:00 +8°C° 0 mm 1 mps 724 mmHg 47%
    20:00 +7°C° 0 mm 2 mps 725 mmHg 48%
    21:00 +6°C° 0 mm 2 mps 725 mmHg 49%
    22:00 +6°C° 0 mm 2 mps 726 mmHg 50%
    23:00 +6°C° 0 mm 2 mps 726 mmHg 51%

    Day after tomorrow, 22 February, Friday

    Time Temperature Precipitation Wind Pressure Humidity
    00:00 +6°C° 0 mm 2 mps 727 mmHg 51%
    01:00 +6°C° 0 mm 2 mps 727 mmHg 52%
    02:00 +6°C° 0 mm 2 mps 728 mmHg 52%
    03:00 +5°C° 0 mm 2 mps 728 mmHg 53%
    04:00 +5°C° 0 mm 2 mps 729 mmHg 53%
    05:00 +5°C° 0 mm 2 mps 729 mmHg 52%
    06:00 +5°C° 0 mm 2 mps 730 mmHg 52%
    07:00 +5°C° 0 mm 2 mps 731 mmHg 51%
    08:00 +7°C° 0 mm 2 mps 732 mmHg 48%
    09:00 +8°C° 0 mm 2 mps 732 mmHg 44%
    10:00 +10°C° 0 mm 2 mps 733 mmHg 40%
    11:00 +12°C° 0 mm 2 mps 733 mmHg 39%
    12:00 +13°C° 0 mm 2 mps 733 mmHg 38%
    13:00 +14°C° 0 mm 2 mps 733 mmHg 37%
    14:00 +14°C° 0 mm 2 mps 733 mmHg 39%
    15:00 +14°C° 0 mm 2 mps 733 mmHg 40%
    16:00 +14°C° 0 mm 2 mps 733 mmHg 41%
    17:00 +12°C° 0 mm 2 mps 734 mmHg 42%
    18:00 +10°C° 0 mm 2 mps 734 mmHg 42%
    19:00 +9°C° 0 mm 1 mps 735 mmHg 42%
    20:00 +9°C° 0 mm 1 mps 735 mmHg 46%
    21:00 +9°C° 0 mm 1 mps 736 mmHg 50%
    22:00 +7°C° 0 mm 0 mps 737 mmHg 53%
    23:00 +7°C° 0 mm 0 mps 737 mmHg 55%

    23 February, Saturday

    Time Temperature Precipitation Wind Pressure Humidity
    00:00 +7°C° 0 mm 1 mps 737 mmHg 57%
    01:00 +7°C° 0 mm 1 mps 737 mmHg 59%
    02:00 +7°C° 0 mm 1 mps 737 mmHg 60%
    03:00 +7°C° 0 mm 1 mps 737 mmHg 60%
    04:00 +7°C° 0 mm 1 mps 737 mmHg 60%
    05:00 +7°C° 0 mm 1 mps 738 mmHg 59%
    06:00 +7°C° 0 mm 1 mps 738 mmHg 58%
    07:00 +6°C° 0 mm 0 mps 739 mmHg 57%
    08:00 +9°C° 0 mm 1 mps 739 mmHg 55%
    09:00 +10°C° 0 mm 1 mps 739 mmHg 53%
    10:00 +12°C° 0 mm 1 mps 740 mmHg 51%
    11:00 +13°C° 0 mm 1 mps 739 mmHg 48%
    12:00 +14°C° 0 mm 1 mps 739 mmHg 45%
    13:00 +15°C° 0 mm 2 mps 738 mmHg 42%
    14:00 +14°C° 0 mm 2 mps 738 mmHg 42%
    15:00 +14°C° 0 mm 2 mps 738 mmHg 42%
    16:00 +14°C° 0 mm 2 mps 737 mmHg 42%
    17:00 +13°C° 0 mm 2 mps 737 mmHg 44%
    18:00 +12°C° 0 mm 1 mps 738 mmHg 45%
    19:00 +11°C° 0 mm 1 mps 738 mmHg 46%
    20:00 +10°C° 0 mm 1 mps 738 mmHg 47%
    21:00 +9°C° 0 mm 0 mps 738 mmHg 48%
    22:00 +8°C° 0 mm 0 mps 738 mmHg 49%
    23:00 +8°C° 0 mm 0 mps 738 mmHg 49%

    24 February, Sunday

    Time Temperature Precipitation Wind Pressure Humidity
    00:00 +8°C° 0 mm 0 mps 738 mmHg 49%
    01:00 +9°C° 0 mm 1 mps 738 mmHg 49%
    02:00 +9°C° 0 mm 1 mps 737 mmHg 48%
    03:00 +9°C° 0 mm 1 mps 737 mmHg 47%
    04:00 +9°C° 0 mm 1 mps 737 mmHg 46%
    05:00 +9°C° 0 mm 1 mps 737 mmHg 46%
    06:00 +10°C° 0 mm 1 mps 737 mmHg 46%
    07:00 +10°C° 0 mm 1 mps 737 mmHg 45%
    08:00 +11°C° 0 mm 1 mps 737 mmHg 42%
    09:00 +13°C° 0 mm 1 mps 737 mmHg 39%
    10:00 +14°C° 0 mm 0 mps 737 mmHg 36%
    11:00 +15°C° 0 mm 1 mps 737 mmHg 34%
    12:00 +16°C° 0 mm 1 mps 736 mmHg 32%
    13:00 +18°C° 0 mm 1 mps 736 mmHg 30%
    14:00 +18°C° 0 mm 1 mps 735 mmHg 32%
    15:00 +18°C° 0 mm 1 mps 735 mmHg 33%
    16:00 +18°C° 0 mm 1 mps 734 mmHg 35%
    17:00 +16°C° 0 mm 1 mps 734 mmHg 37%
    18:00 +14°C° 0 mm 1 mps 735 mmHg 39%
    19:00 +13°C° 0 mm 1 mps 735 mmHg 41%
    20:00 +12°C° 0 mm 1 mps 735 mmHg 43%
    21:00 +12°C° 0 mm 1 mps 735 mmHg 46%
    22:00 +11°C° 0 mm 0 mps 735 mmHg 49%
    23:00 +10°C° 0 mm 0 mps 735 mmHg 49%

    25 February, Monday

    Time Temperature Precipitation Wind Pressure Humidity
    00:00 +10°C° 0 mm 0 mps 735 mmHg 50%
    01:00 +10°C° 0 mm 0 mps 735 mmHg 51%
    02:00 +10°C° 0 mm 0 mps 734 mmHg 50%
    03:00 +11°C° 0 mm 1 mps 734 mmHg 50%
    04:00 +11°C° 0 mm 1 mps 734 mmHg 50%
    05:00 +11°C° 0 mm 1 mps 734 mmHg 49%
    06:00 +10°C° 0 mm 0 mps 734 mmHg 48%
    07:00 +10°C° 0 mm 0 mps 735 mmHg 48%
    08:00 +12°C° 0 mm 1 mps 735 mmHg 45%
    09:00 +14°C° 0 mm 1 mps 735 mmHg 43%
    10:00 +16°C° 0 mm 1 mps 735 mmHg 41%
    11:00 +18°C° 0 mm 1 mps 735 mmHg 40%
    12:00 +17°C° 0 mm 2 mps 735 mmHg 39%
    13:00 +18°C° 0 mm 2 mps 734 mmHg 39%
    14:00 +18°C° 0 mm 2 mps 734 mmHg 39%
    15:00 +18°C° 0 mm 2 mps 734 mmHg 40%
    16:00 +18°C° 0 mm 2 mps 734 mmHg 40%
    17:00 +16°C° 0 mm 2 mps 734 mmHg 45%
    18:00 +15°C° 0 mm 1 mps 734 mmHg 49%
    19:00 +14°C° 0 mm 1 mps 734 mmHg 53%
    20:00 +13°C° 0 mm 1 mps 735 mmHg 55%
    21:00 +12°C° 0 mm 0 mps 735 mmHg 57%
    22:00 +11°C° 0 mm 0 mps 735 mmHg 59%
    23:00 +11°C° 0 mm 0 mps 735 mmHg 60%
    Show more